RH
11 9 7 7 9 12 28 35 34 34 33 36 32 11 8 9 12 16 14 13 15 18 22 25 26 26 25 20 22 21 25 28 29 29 33 32 36 34 33 38 38 37 35 39 59
12 8 6 5 5 7 15 26 30 31 31 34 32 17 8 9 22 12 13 15 16 20 23 22 22 23 16 16 21 23 26 29 28 28 29 34 33 37 38 39 38 42 46 52 61
9 8 5 4 4 4 6 13 24 28 29 31 31 24 8 12 14 10 13 15 15 23 23 22 17 14 16 15 19 24 26 28 28 28 29 34 33 33 34 37 31 36 47 54 55
10 8 6 5 4 4 4 5 13 23 27 29 30 26 8 24 11 12 13 15 18 24 24 18 13 16 19 24 23 28 26 27 28 30 31 33 31 37 32 30 29 30 42 50 50
10 8 7 6 5 4 4 4 6 15 24 28 28 25 14 14 9 12 13 15 21 21 19 13 15 15 21 20 24 26 25 26 29 31 31 33 35 34 33 31 30 35 42 44 46
11 9 7 7 6 5 5 12 17 17 23 25 26 23 18 12 12 11 19 18 18 22 20 15 14 14 18 19 23 24 24 26 28 30 33 32 36 35 30 33 38 43 43 42 45
12 9 8 7 6 8 32 31 26 22 21 21 26 16 11 8 18 23 21 16 15 16 17 15 14 15 19 25 25 26 28 27 26 28 31 30 37 35 30 34 40 42 42 42 44
16 10 8 6 7 41 42 39 27 23 19 23 25 22 9 7 16 18 17 16 16 15 14 15 15 14 20 25 26 28 27 27 24 28 30 32 26 25 30 34 38 41 42 44 43
17 11 8 6 14 57 43 38 31 29 30 25 20 15 9 8 10 10 15 12 15 16 16 18 16 17 25 28 28 27 27 26 20 24 28 34 25 26 30 33 33 39 41 43 43
15 10 8 6 35 58 41 33 32 32 28 22 20 17 10 7 12 15 14 13 14 16 18 19 20 22 22 26 29 24 26 23 23 21 30 30 30 26 32 34 32 37 38 41 42
16 11 8 6 56 58 39 44 30 31 29 18 14 14 11 14 17 13 17 15 14 16 19 19 24 25 20 20 21 24 24 22 18 16 26 28 28 21 25 33 34 34 37 38 39
17 12 9 6 69 59 65 51 67 82 35 26 29 28 24 20 12 12 19 15 20 20 20 26 24 17 21 24 26 24 25 22 17 22 28 23 24 18 22 30 31 33 34 36 36
16 12 9 6 63 68 57 54 63 81 45 23 22 22 18 18 10 11 19 17 19 19 22 23 20 20 26 25 28 24 24 21 22 24 27 28 24 19 26 28 31 30 29 32 35
19 12 9 6 36 48 61 48 81 86 26 17 22 17 19 15 12 9 15 19 22 20 18 20 19 27 29 29 26 29 20 21 21 21 22 25 24 23 17 22 31 31 33 32 34
21 14 10 8 35 35 48 46 92 76 94 16 24 18 14 13 10 11 17 21 20 21 26 22 28 30 29 26 20 23 19 20 19 21 22 20 24 16 17 15 13 18 29 33 33
21 14 12 29 31 34 23 67 73 50 98 23 20 19 18 14 10 12 13 19 20 26 28 20 23 22 22 20 20 16 21 20 20 21 29 20 21 17 15 16 14 19 20 23 29
22 14 17 21 24 15 31 63 44 99 21 22 22 15 17 17 12 13 16 20 21 29 28 25 25 20 18 19 21 21 24 34 32 31 31 20 22 15 13 17 22 26 30 35 30
18 14 30 27 38 42 74 46 100 23 21 32 31 25 18 16 16 12 15 16 20 20 18 24 26 21 17 19 18 22 22 34 42 30 23 21 20 15 19 24 28 31 33 36 39
17 58 58 79 70 82 57 93 44 24 33 40 32 27 20 15 16 16 16 13 13 19 21 23 21 19 21 18 18 24 28 22 30 36 34 22 14 13 16 23 27 29 32 37 37
52 50 51 92 87 74 43 53 38 43 48 41 33 27 21 17 17 18 18 15 16 16 14 16 22 19 20 20 24 25 19 32 32 65 35 18 20 17 16 18 23 28 31 38 40
60 34 81 85 86 39 64 29 31 42 48 44 38 37 27 26 22 17 16 18 18 17 21 16 20 21 20 22 18 28 30 29 30 32 31 25 18 15 16 19 21 23 32 37 42
52 30 81 92 34 32 24 22 52 36 35 40 39 42 39 33 30 21 18 23 25 23 22 19 22 24 21 20 21 19 20 23 47 37 35 30 23 16 20 22 24 23 32 40 43
31 44 70 79 50 33 37 34 39 35 30 27 35 38 37 39 37 36 34 32 25 24 24 27 26 37 26 26 25 25 24 28 33 31 33 39 28 22 22 25 25 26 33 43 46
41 93 64 59 54 35 34 27 29 36 31 27 26 31 34 37 37 42 38 37 33 31 55 33 27 25 32 22 20 32 24 34 32 44 34 26 24 18 20 22 24 29 34 41 46
46 68 57 94 69 49 38 29 28 39 34 32 33 24 25 28 29 37 37 37 34 44 33 33 34 27 25 16 14 16 17 21 37 26 27 22 19 15 14 16 20 27 35 43 45
69 55 55 57 57 57 54 44 36 40 34 37 34 45 40 26 30 48 51 43 41 40 39 36 34 34 32 22 18 20 16 16 22 18 16 18 18 14 15 22 23 29 37 44 43
67 68 47 64 58 52 48 49 47 45 54 47 46 41 46 61 59 54 54 53 54 60 52 48 43 39 36 28 25 36 25 18 18 19 20 21 16 14 23 26 26 32 36 39 38
Wind_Speed
14 14 13 13 13 13 12 12 12 12 13 14 15 8 4 5 3 6 8 1 6 12 11 10 5 2 2 2 1 3 4 3 4 2 6 11 12 5 2 6 4 7 1 6 26
15 15 15 14 13 13 13 13 12 12 12 13 14 10 6 5 5 11 5 7 8 15 12 10 6 4 2 1 2 4 3 5 6 5 4 11 12 10 8 9 7 9 8 20 27
15 15 15 15 14 14 13 13 13 12 11 12 13 11 7 1 7 8 11 11 16 15 7 5 5 4 4 2 2 1 4 3 2 3 3 8 12 10 10 10 7 12 15 22 24
16 16 16 16 17 16 15 14 14 12 12 11 12 11 6 4 6 5 16 13 17 11 10 6 5 4 3 3 2 7 1 1 3 0 2 6 9 10 11 9 4 6 18 23 21
16 16 18 18 19 19 18 16 14 12 11 11 11 9 2 6 2 2 9 16 16 13 11 7 6 3 5 3 3 6 3 3 4 3 2 5 9 5 10 4 4 13 18 19 20
17 17 18 19 20 21 18 16 13 13 11 10 9 5 4 8 1 3 9 19 14 16 11 8 2 2 2 4 8 3 1 3 1 4 5 6 5 6 8 8 10 13 15 17 20
17 17 18 20 22 20 17 15 15 14 12 9 7 2 4 2 2 5 12 17 14 14 10 6 3 6 1 6 3 5 7 5 5 4 4 5 8 10 10 11 11 13 14 15 18
18 18 19 20 22 18 18 16 15 13 10 6 5 2 4 3 3 7 9 10 9 7 6 3 3 5 5 4 5 9 6 9 9 6 4 8 4 9 12 13 13 13 14 15 17
19 18 19 20 20 19 18 15 7 6 3 7 4 4 2 2 5 9 11 7 11 8 6 2 6 5 5 10 9 8 12 3 9 7 4 12 7 8 11 13 13 14 14 15 16
18 19 20 20 17 21 16 4 2 2 4 4 1 4 5 4 4 4 10 9 5 11 8 8 7 10 9 10 12 8 7 5 9 3 10 12 16 7 8 12 12 13 14 15 17
18 18 19 20 13 20 11 2 4 4 6 4 1 2 1 3 2 9 8 11 9 12 12 13 11 14 16 15 10 7 11 14 10 4 10 14 15 13 13 12 13 14 15 16 17
18 18 18 18 9 15 8 5 4 3 5 5 7 6 5 3 3 8 11 12 10 14 10 8 15 15 8 6 10 11 13 15 10 5 9 14 15 15 9 15 15 15 15 17 16
17 18 17 17 5 6 12 7 4 4 5 2 4 6 5 9 5 10 11 9 13 16 15 16 10 10 9 10 11 12 12 12 9 2 10 9 16 11 9 11 12 15 15 15 18
16 15 16 13 2 5 3 8 3 6 4 5 5 5 6 5 6 9 10 8 9 15 15 13 12 9 10 11 8 13 9 11 9 7 9 4 12 3 4 9 12 13 13 15 18
16 14 12 9 6 2 2 9 2 3 3 3 5 2 5 11 4 8 5 7 15 12 8 14 11 13 14 15 9 14 3 9 7 10 8 10 7 9 5 8 8 8 11 14 17
16 13 13 5 5 3 6 2 3 2 6 5 4 7 8 12 5 5 9 3 1 6 7 12 1 6 11 5 9 5 7 5 5 8 11 14 9 14 12 8 2 3 4 8 15
15 11 10 5 1 4 5 4 3 4 1 6 5 6 11 10 11 8 14 14 12 12 13 12 13 4 5 9 6 12 10 9 9 8 10 3 8 13 9 3 4 4 2 2 9
14 10 6 6 6 4 3 5 3 3 4 1 2 5 8 9 9 14 9 15 9 12 8 13 13 15 11 15 10 11 12 9 11 11 9 7 7 3 2 1 1 1 0 2 7
11 4 3 3 3 2 7 4 5 4 1 2 4 7 11 7 3 10 17 16 13 15 13 9 10 3 3 6 10 8 9 6 10 2 9 13 16 11 7 5 4 3 3 5 3
6 4 4 3 3 5 7 5 4 2 1 3 7 3 8 8 8 9 11 6 12 14 17 9 9 5 5 6 2 8 3 7 5 4 12 10 9 10 6 3 6 6 5 6 5
3 3 4 3 3 5 6 7 5 4 4 3 4 4 3 4 5 8 5 3 2 7 10 11 11 6 6 10 12 6 11 8 6 7 9 10 5 5 1 3 4 6 6 6 6
2 4 4 5 6 3 7 4 1 6 3 4 2 2 3 3 4 7 5 2 5 3 8 14 9 12 14 5 4 10 14 15 9 9 6 9 12 4 3 2 3 6 7 6 6
3 1 2 4 6 7 4 4 3 6 5 5 5 2 1 3 3 3 3 3 7 1 1 8 9 10 10 5 4 7 11 11 8 7 13 11 8 4 4 6 6 8 9 8 8
3 2 3 4 1 6 8 8 8 3 3 2 2 2 4 5 3 2 4 3 3 5 4 1 5 14 13 13 9 7 13 13 14 10 13 15 18 10 9 10 8 10 11 10 9
3 3 1 4 7 8 7 7 11 7 4 4 4 7 5 6 8 8 5 4 3 3 0 2 6 9 14 14 14 15 15 16 16 19 18 16 20 15 13 8 10 11 12 12 12
4 3 3 3 5 11 6 8 10 7 4 7 5 4 4 8 5 3 3 0 2 2 0 0 5 4 10 14 17 18 17 17 18 19 18 17 20 17 8 5 8 13 15 16 15
3 1 4 5 8 9 9 9 9 8 4 4 5 4 5 5 3 4 5 8 7 5 3 3 2 2 9 4 8 13 18 19 18 16 17 18 17 17 9 11 12 15 17 17 17
Wind_Direction
353 350 347 342 336 329 330 330 335 346 355 1 4 358 338 312 223 187 224 246 184 172 148 148 157 149 275 299 265 287 247 60 54 353 91 159 183 156 116 153 182 163 75 128 154
356 354 350 347 341 333 326 324 324 332 343 352 356 354 336 314 227 224 204 187 177 163 161 174 172 199 218 266 212 278 285 42 6 4 355 179 196 163 183 174 176 153 119 139 154
356 354 350 347 341 336 330 320 317 320 329 341 347 348 333 268 220 211 195 178 167 165 180 164 155 225 249 229 182 136 344 26 74 312 261 186 199 179 205 196 179 184 154 155 162
357 352 349 347 342 338 330 319 313 312 317 329 337 343 322 187 193 124 181 177 177 174 171 180 200 214 226 214 189 255 74 75 64 178 228 197 183 203 215 74 7 145 158 162 169
354 351 349 349 344 337 329 322 312 306 306 317 327 335 276 211 231 137 177 177 182 186 196 196 206 217 212 220 187 235 113 79 98 138 113 147 183 204 213 117 124 136 157 166 172
351 348 349 348 342 336 328 322 311 299 294 304 313 319 261 229 54 211 172 178 187 195 198 211 265 319 255 235 252 132 172 94 85 118 144 185 171 221 188 153 139 152 164 170 175
348 345 347 346 340 335 331 321 308 296 286 286 284 251 242 285 77 169 166 183 190 198 207 207 251 250 324 175 148 170 204 205 198 184 161 202 196 217 146 171 160 166 169 171 177
345 345 347 344 340 337 332 321 307 293 277 261 208 205 260 210 179 160 165 169 190 198 217 199 226 249 258 116 167 214 249 259 133 197 168 222 168 182 164 180 179 175 175 178 178
343 343 347 344 341 338 334 321 314 309 216 156 169 228 218 175 207 200 189 178 178 187 193 130 195 232 180 206 209 199 274 247 292 205 195 222 296 115 179 199 187 185 180 182 180
342 341 347 346 342 342 340 1 55 65 115 119 176 231 205 159 143 168 199 192 172 162 166 208 210 216 218 221 244 261 219 239 278 157 226 232 253 161 182 201 206 191 186 188 189
342 340 347 346 343 350 5 313 228 191 227 276 264 314 129 326 186 194 177 180 183 196 207 202 219 222 225 226 288 291 275 275 279 260 251 245 261 271 186 208 201 202 195 196 194
340 338 345 347 346 10 30 63 52 343 291 229 257 277 259 292 206 183 169 187 197 211 208 193 228 241 258 283 246 249 265 269 278 325 244 262 268 272 214 214 210 209 202 198 187
339 337 343 348 349 28 58 56 326 181 262 229 222 245 234 195 215 189 188 213 211 218 210 233 233 233 218 221 241 243 264 270 274 340 236 268 257 227 208 210 225 214 214 200 194
337 337 342 354 77 357 70 350 325 180 263 164 194 198 186 210 225 194 202 213 211 226 225 238 225 196 202 235 248 263 253 259 265 256 286 225 282 243 155 219 207 227 214 201 197
332 336 339 1 319 307 336 346 133 229 318 133 153 105 175 200 109 175 169 191 222 201 206 221 213 215 232 241 260 264 281 258 255 265 294 224 257 270 166 256 230 193 212 214 201
327 328 325 336 305 253 322 353 211 210 233 161 148 178 169 200 195 128 180 164 275 189 218 255 135 248 254 266 240 248 204 201 227 263 258 266 285 279 286 287 327 183 273 244 208
320 313 302 281 277 286 319 213 207 192 136 168 178 186 208 187 199 190 186 190 199 206 215 210 222 207 207 222 189 204 221 242 237 231 256 356 269 264 294 297 305 305 304 270 208
318 304 278 244 265 280 214 211 201 224 205 77 192 193 205 178 216 205 181 202 219 226 228 220 218 216 195 231 242 213 231 227 253 259 264 145 263 283 67 152 234 230 158 160 182
323 298 236 233 206 205 213 200 217 203 129 215 187 211 200 202 248 201 218 218 202 207 216 211 233 101 220 223 243 192 227 288 265 249 269 269 267 262 225 227 209 166 142 129 172
320 281 194 208 178 207 213 224 225 213 262 219 229 238 216 188 205 202 191 220 216 211 221 219 242 199 135 181 155 262 189 221 228 240 255 254 263 272 229 216 202 193 165 138 141
247 223 145 175 171 208 202 211 198 199 241 235 200 203 205 196 223 205 198 111 257 215 222 207 224 165 178 208 220 185 217 232 265 246 255 269 250 97 340 9 204 192 171 151 138
226 214 149 166 195 209 205 193 145 181 191 216 246 231 231 182 200 206 198 27 9 245 204 210 227 228 219 135 268 263 239 224 224 223 254 272 268 153 215 288 252 190 171 152 142
214 139 172 209 202 202 165 184 216 186 187 201 202 230 196 205 208 205 157 68 23 316 204 181 220 219 205 190 204 224 212 233 263 264 245 245 255 152 214 230 222 210 179 170 157
198 149 154 208 288 236 183 191 181 193 186 198 145 197 194 221 221 181 180 112 348 12 17 281 245 226 227 235 205 203 212 204 215 236 246 244 264 234 215 240 209 205 188 179 174
211 203 159 185 212 203 204 182 180 162 193 195 185 231 220 222 231 226 252 259 139 26 307 252 255 250 262 260 250 243 236 216 211 231 247 257 259 257 276 245 238 202 187 183 180
170 175 180 150 172 186 172 185 190 159 205 172 202 146 182 224 266 162 315 330 322 320 11 322 253 259 256 252 247 246 241 242 227 248 264 265 271 274 277 253 223 197 190 193 189
163 211 264 157 167 185 193 171 175 159 74 84 137 170 185 119 332 318 293 289 281 307 303 280 260 246 262 267 263 250 237 233 236 233 238 256 260 270 222 229 215 203 200 199 191